EN

Hourly Weather Lahodivka

Today, 5 August, Thursday

Time Temperature Precipitation Wind Pressure Humidity
00:00 +21°C° 0 mm 1 mps 751 mmHg 51%
01:00 +20°C° 0 mm 2 mps 751 mmHg 53%
02:00 +19°C° 0 mm 3 mps 751 mmHg 56%
03:00 +19°C° 0 mm 3 mps 750 mmHg 56%
04:00 +20°C° 0 mm 3 mps 750 mmHg 57%
05:00 +20°C° 0 mm 3 mps 750 mmHg 57%
06:00 +22°C° 0 mm 3 mps 750 mmHg 53%
07:00 +25°C° 0 mm 4 mps 750 mmHg 50%
08:00 +27°C° 0 mm 4 mps 750 mmHg 46%
09:00 +28°C° 0 mm 5 mps 750 mmHg 43%
10:00 +30°C° 0 mm 5 mps 749 mmHg 40%
11:00 +32°C° 0 mm 5 mps 749 mmHg 37%
12:00 +33°C° 0 mm 5 mps 749 mmHg 36%
13:00 +33°C° 0 mm 5 mps 749 mmHg 35%
14:00 +33°C° 0 mm 5 mps 748 mmHg 34%
15:00 +33°C° 0 mm 5 mps 748 mmHg 35%
16:00 +32°C° 0 mm 4 mps 748 mmHg 36%
17:00 +32°C° 0 mm 4 mps 747 mmHg 38%
18:00 +29°C° 0.1 mm 3 mps 747 mmHg 44%
19:00 +27°C° 0.1 mm 3 mps 747 mmHg 49%
20:00 +26°C° 0.1 mm 2 mps 747 mmHg 55%
21:00 +25°C° 0 mm 3 mps 746 mmHg 56%
22:00 +24°C° 0 mm 3 mps 746 mmHg 58%
23:00 +24°C° 0 mm 3 mps 746 mmHg 59%

Tomorrow, 6 August, Friday

Time Temperature Precipitation Wind Pressure Humidity
00:00 +22°C° 0 mm 3 mps 746 mmHg 58%
01:00 +22°C° 0 mm 3 mps 746 mmHg 57%
02:00 +22°C° 0 mm 3 mps 746 mmHg 55%
03:00 +21°C° 0 mm 3 mps 745 mmHg 56%
04:00 +21°C° 0 mm 3 mps 745 mmHg 56%
05:00 +21°C° 0 mm 4 mps 745 mmHg 57%
06:00 +23°C° 0 mm 4 mps 745 mmHg 51%
07:00 +27°C° 0 mm 4 mps 744 mmHg 45%
08:00 +29°C° 0 mm 5 mps 744 mmHg 39%
09:00 +32°C° 0 mm 5 mps 744 mmHg 35%
10:00 +34°C° 0 mm 5 mps 744 mmHg 31%
11:00 +35°C° 0 mm 6 mps 744 mmHg 26%
12:00 +36°C° 0 mm 6 mps 743 mmHg 25%
13:00 +38°C° 0 mm 6 mps 743 mmHg 24%
14:00 +39°C° 0 mm 6 mps 742 mmHg 23%
15:00 +38°C° 0 mm 6 mps 742 mmHg 24%
16:00 +38°C° 0 mm 6 mps 742 mmHg 24%
17:00 +37°C° 0 mm 5 mps 741 mmHg 25%
18:00 +33°C° 0.2 mm 5 mps 742 mmHg 39%
19:00 +28°C° 0.2 mm 5 mps 742 mmHg 53%
20:00 +23°C° 0.2 mm 5 mps 742 mmHg 67%
21:00 +22°C° 0.1 mm 4 mps 742 mmHg 72%
22:00 +21°C° 0.1 mm 4 mps 742 mmHg 78%
23:00 +20°C° 0.1 mm 4 mps 743 mmHg 84%

Day after tomorrow, 7 August, Saturday

Time Temperature Precipitation Wind Pressure Humidity
00:00 +20°C° 0 mm 3 mps 742 mmHg 85%
01:00 +20°C° 0 mm 3 mps 742 mmHg 86%
02:00 +20°C° 0 mm 2 mps 742 mmHg 87%
03:00 +20°C° 0 mm 2 mps 742 mmHg 86%
04:00 +20°C° 0 mm 2 mps 743 mmHg 84%
05:00 +21°C° 0 mm 1 mps 743 mmHg 83%
06:00 +21°C° 0 mm 2 mps 743 mmHg 79%
07:00 +24°C° 0 mm 3 mps 744 mmHg 74%
08:00 +25°C° 0 mm 4 mps 744 mmHg 69%
09:00 +26°C° 0 mm 5 mps 744 mmHg 63%
10:00 +28°C° 0 mm 5 mps 744 mmHg 57%
11:00 +30°C° 0 mm 5 mps 744 mmHg 50%
12:00 +30°C° 0 mm 5 mps 745 mmHg 47%
13:00 +32°C° 0 mm 5 mps 745 mmHg 45%
14:00 +32°C° 0 mm 5 mps 745 mmHg 42%
15:00 +32°C° 0 mm 5 mps 745 mmHg 43%
16:00 +30°C° 0 mm 6 mps 745 mmHg 44%
17:00 +29°C° 0 mm 6 mps 746 mmHg 44%
18:00 +28°C° 0 mm 6 mps 746 mmHg 47%
19:00 +26°C° 0 mm 5 mps 747 mmHg 50%
20:00 +23°C° 0 mm 5 mps 747 mmHg 53%
21:00 +22°C° 0 mm 5 mps 747 mmHg 55%
22:00 +21°C° 0 mm 4 mps 748 mmHg 56%
23:00 +20°C° 0 mm 4 mps 748 mmHg 58%

8 August, Sunday

Time Temperature Precipitation Wind Pressure Humidity
00:00 +19°C° 0 mm 3 mps 748 mmHg 62%
01:00 +18°C° 0 mm 3 mps 749 mmHg 66%
02:00 +17°C° 0 mm 3 mps 749 mmHg 69%
03:00 +17°C° 0 mm 3 mps 749 mmHg 71%
04:00 +16°C° 0 mm 3 mps 749 mmHg 74%
05:00 +16°C° 0 mm 3 mps 749 mmHg 76%
06:00 +19°C° 0 mm 4 mps 750 mmHg 65%
07:00 +21°C° 0 mm 4 mps 750 mmHg 53%
08:00 +25°C° 0 mm 5 mps 750 mmHg 42%
09:00 +26°C° 0 mm 5 mps 750 mmHg 38%
10:00 +28°C° 0 mm 5 mps 750 mmHg 33%
11:00 +30°C° 0 mm 6 mps 750 mmHg 28%
12:00 +30°C° 0 mm 5 mps 750 mmHg 27%
13:00 +32°C° 0 mm 5 mps 750 mmHg 26%
14:00 +33°C° 0 mm 5 mps 750 mmHg 25%
15:00 +33°C° 0 mm 5 mps 750 mmHg 26%
16:00 +32°C° 0 mm 5 mps 750 mmHg 26%
17:00 +32°C° 0 mm 5 mps 750 mmHg 27%
18:00 +28°C° 0 mm 4 mps 750 mmHg 33%
19:00 +26°C° 0 mm 4 mps 751 mmHg 39%
20:00 +24°C° 0 mm 3 mps 751 mmHg 45%
21:00 +22°C° 0 mm 3 mps 751 mmHg 49%
22:00 +21°C° 0 mm 3 mps 751 mmHg 52%
23:00 +20°C° 0 mm 2 mps 752 mmHg 56%

9 August, Monday

Time Temperature Precipitation Wind Pressure Humidity
00:00 +19°C° 0 mm 2 mps 752 mmHg 58%
01:00 +19°C° 0 mm 2 mps 752 mmHg 60%
02:00 +18°C° 0 mm 2 mps 752 mmHg 62%
03:00 +18°C° 0 mm 2 mps 752 mmHg 65%
04:00 +18°C° 0 mm 2 mps 752 mmHg 68%
05:00 +18°C° 0 mm 2 mps 752 mmHg 71%
06:00 +20°C° 0 mm 2 mps 752 mmHg 64%
07:00 +24°C° 0 mm 3 mps 752 mmHg 56%
08:00 +26°C° 0 mm 3 mps 752 mmHg 48%
09:00 +28°C° 0 mm 3 mps 752 mmHg 43%
10:00 +30°C° 0 mm 3 mps 752 mmHg 37%
11:00 +31°C° 0 mm 3 mps 752 mmHg 31%
12:00 +33°C° 0 mm 3 mps 751 mmHg 28%
13:00 +34°C° 0 mm 3 mps 751 mmHg 26%
14:00 +35°C° 0 mm 3 mps 751 mmHg 23%
15:00 +35°C° 0 mm 3 mps 751 mmHg 23%
16:00 +35°C° 0 mm 3 mps 751 mmHg 23%
17:00 +34°C° 0 mm 3 mps 751 mmHg 23%
18:00 +31°C° 0 mm 3 mps 751 mmHg 28%
19:00 +28°C° 0 mm 3 mps 751 mmHg 34%
20:00 +26°C° 0 mm 3 mps 751 mmHg 39%
21:00 +25°C° 0 mm 3 mps 751 mmHg 41%
22:00 +24°C° 0 mm 3 mps 751 mmHg 43%
23:00 +23°C° 0 mm 2 mps 751 mmHg 45%

10 August, Tuesday

Time Temperature Precipitation Wind Pressure Humidity
00:00 +23°C° 0 mm 2 mps 751 mmHg 48%
01:00 +21°C° 0 mm 2 mps 751 mmHg 51%
02:00 +21°C° 0 mm 2 mps 751 mmHg 53%
03:00 +21°C° 0 mm 2 mps 751 mmHg 56%
04:00 +22°C° 0 mm 1 mps 751 mmHg 58%
05:00 +21°C° 0 mm 1 mps 751 mmHg 61%
06:00 +24°C° 0 mm 1 mps 751 mmHg 54%
07:00 +27°C° 0 mm 1 mps 751 mmHg 48%
08:00 +29°C° 0 mm 1 mps 751 mmHg 42%
09:00 +31°C° 0 mm 1 mps 751 mmHg 37%
10:00 +33°C° 0 mm 1 mps 751 mmHg 32%
11:00 +34°C° 0 mm 1 mps 751 mmHg 27%
12:00 +35°C° 0 mm 1 mps 750 mmHg 26%
13:00 +36°C° 0 mm 1 mps 750 mmHg 25%
14:00 +36°C° 0 mm 1 mps 750 mmHg 23%
15:00 +36°C° 0 mm 1 mps 749 mmHg 24%
16:00 +36°C° 0 mm 2 mps 749 mmHg 25%
17:00 +36°C° 0 mm 2 mps 749 mmHg 26%
18:00 +32°C° 0.1 mm 2 mps 749 mmHg 35%
19:00 +29°C° 0.1 mm 3 mps 749 mmHg 43%
20:00 +27°C° 0.1 mm 3 mps 749 mmHg 52%
21:00 +25°C° 0 mm 3 mps 749 mmHg 59%
22:00 +23°C° 0 mm 4 mps 749 mmHg 67%
23:00 +22°C° 0 mm 4 mps 750 mmHg 74%
Show more